Vorticity
nan nan nan nan nan nan nan nan nan nan nan nan nan nan nan nan nan nan nan nan nan nan
nan 7 7 12 8 6 10 10 14 11 11 12 6 7 7 7 8 7 7 8 8 nan
nan 8 9 12 11 8 12 14 14 14 10 6 7 8 8 6 6 6 7 8 8 nan
nan 15 12 10 11 15 15 16 11 10 9 6 7 8 6 5 6 9 7 6 9 nan
nan 13 12 11 11 13 15 13 9 9 9 8 7 5 8 8 6 9 9 8 8 nan
nan 11 11 10 10 9 6 7 8 8 10 11 9 7 5 5 8 8 9 9 9 nan
nan 8 8 11 11 8 6 9 8 8 7 6 8 9 7 8 10 10 9 8 9 nan
nan 12 10 9 7 7 8 9 9 5 7 9 6 15 15 12 9 9 9 10 10 nan
nan 9 8 9 10 10 9 7 8 8 5 7 10 15 12 11 8 8 9 9 9 nan
nan 9 8 9 9 10 8 7 6 7 8 9 15 10 4 5 6 8 8 8 9 nan
nan 10 10 7 7 6 6 7 10 11 10 8 14 14 7 4 4 8 8 9 9 nan
nan 7 8 7 5 6 9 10 10 9 9 11 13 13 8 9 10 10 12 11 11 nan
nan 4 4 10 8 9 10 10 10 11 8 8 13 7 9 13 14 12 13 10 12 nan
nan nan nan nan nan nan nan nan nan nan nan nan nan nan nan nan nan nan nan nan nan nan
CAPE
997 783 404 202 73 9 0 13 15 8 16 5 0 0 0 0 0 0 0 0 0 0
798 677 635 514 258 12 0 10 7 21 10 3 0 0 0 0 0 0 0 1 4 5
661 646 603 485 150 1 0 20 13 10 1 0 0 0 0 0 0 0 3 5 9 14
410 484 284 139 1 0 0 0 0 0 0 0 0 0 0 0 0 1 12 8 12 14
309 10 0 0 0 0 0 0 0 0 2 5 0 0 0 5 0 3 6 11 16 6
0 0 0 0 0 0 0 0 3 0 0 0 0 3 1 1 3 5 8 9 2 1
0 0 1 3 4 3 0 0 0 0 0 0 1 0 0 1 2 2 1 0 0 0
3 2 6 1 1 0 0 0 0 0 0 0 0 0 2 0 0 0 0 0 0 0
11 8 4 0 0 0 0 0 0 0 0 0 4 0 0 0 0 0 0 0 0 0
8 2 0 0 0 0 0 0 0 0 3 2 0 0 0 0 0 0 0 0 0 0
0 0 0 0 0 0 0 1 7 1 0 0 0 0 0 0 0 0 0 0 1 15
0 0 0 0 0 0 3 0 0 0 0 0 0 0 0 0 0 2 1 3 2 5
0 0 0 0 1 0 0 0 0 0 0 0 0 0 0 0 0 0 3 0 0 0
0 0 0 0 0 0 0 0 0 0 0 0 0 0 0 0 0 0 7 3 4 7